2023/01/31 00:00:00,117.1,-3.5
2023/01/31 00:10:00,117.5,-3.2
2023/01/31 00:20:00,117.5,-3.3
2023/01/31 00:30:00,117.4,-3.1
2023/01/31 00:40:00,117.5,-3.1
2023/01/31 00:50:00,117.5,-3.2
2023/01/31 01:00:00,117.5,-3.0
2023/01/31 01:10:00,117.5,-3.3
2023/01/31 01:20:00,117.2,-3.4
2023/01/31 01:30:00,116.9,-3.4
2023/01/31 01:40:00,117.5,-3.2
2023/01/31 01:50:00,117.5,-3.1
2023/01/31 02:00:00,117.5,-3.5
2023/01/31 02:10:00,117.3,-3.2
2023/01/31 02:20:00,117.1,-3.2
2023/01/31 02:30:00,116.8,-3.1
2023/01/31 02:40:00,117.1,-2.9
2023/01/31 02:50:00,117.0,-2.9
2023/01/31 03:00:00,116.8,-3.3
2023/01/31 03:10:00,116.6,-3.1
2023/01/31 03:20:00,116.6,-3.5
2023/01/31 03:30:00,116.7,-3.2
2023/01/31 03:40:00,116.6,-3.6
2023/01/31 03:50:00,116.4,-3.4
2023/01/31 04:00:00,116.3,-3.3
2023/01/31 04:10:00,116.4,-3.5
2023/01/31 04:20:00,116.4,-3.2
2023/01/31 04:30:00,116.1,-3.5
2023/01/31 04:40:00,116.1,-3.2
2023/01/31 04:50:00,116.2,-3.5
2023/01/31 05:00:00,115.9,-3.6
2023/01/31 05:10:00,116.0,-3.3
2023/01/31 05:20:00,116.2,-3.2
2023/01/31 05:30:00,116.1,-3.4
2023/01/31 05:40:00,115.9,-3.2
2023/01/31 05:50:00,116.0,-3.7
2023/01/31 06:00:00,115.8,-4.0
2023/01/31 06:10:00,115.8,-4.3
2023/01/31 06:20:00,115.6,-4.1
2023/01/31 06:30:00,115.7,-4.1
2023/01/31 06:40:00,115.5,-4.3
2023/01/31 06:50:00,115.2,-4.2
2023/01/31 07:00:00,115.1,-4.0
2023/01/31 07:10:00,114.7,-4.4
2023/01/31 07:20:00,114.6,-3.8
2023/01/31 07:30:00,114.7,-4.1
2023/01/31 07:40:00,114.6,-3.5
2023/01/31 07:50:00,114.6,-3.3
2023/01/31 08:00:00,114.4,-3.3
2023/01/31 08:10:00,114.1,-3.2
2023/01/31 08:20:00,114.0,-2.4
2023/01/31 08:30:00,114.0,-2.1
2023/01/31 08:40:00,114.2,-1.4
2023/01/31 08:50:00,114.1,-0.1
2023/01/31 09:00:00,114.3, 0.4
2023/01/31 09:10:00,114.0, 1.0
2023/01/31 09:20:00,114.0,-1.2
2023/01/31 09:30:00,113.8,-1.4
2023/01/31 09:40:00,113.7,-2.1
2023/01/31 09:50:00,113.9,-2.1
2023/01/31 10:00:00,113.8,-1.7
2023/01/31 10:10:00,113.8,-1.9
2023/01/31 10:20:00,113.7,-1.6
2023/01/31 10:30:00,113.5, 1.9
2023/01/31 10:40:00,113.1, 2.1
2023/01/31 10:50:00,112.9,-0.6
2023/01/31 11:00:00,112.8, 0.9
2023/01/31 11:10:00,113.0, 0.7
2023/01/31 11:20:00,112.8, 2.8
2023/01/31 11:30:00,112.4, 2.7
2023/01/31 11:40:00,112.1, 3.2
2023/01/31 11:50:00,111.6, 5.9
2023/01/31 12:00:00,111.7, 7.1
2023/01/31 12:10:00,111.6, 7.9
2023/01/31 12:20:00,111.7, 7.8
2023/01/31 12:30:00,111.5, 8.2
2023/01/31 12:40:00,111.1, 8.5
2023/01/31 12:50:00,110.7, 7.1
2023/01/31 13:00:00,110.1, 9.4
2023/01/31 13:10:00,110.1, 6.4
2023/01/31 13:20:00,109.9, 7.2
2023/01/31 13:30:00,109.4, 7.5
2023/01/31 13:40:00,109.2, 5.7
2023/01/31 13:50:00,108.9, 7.2
2023/01/31 14:00:00,108.8, 7.0
2023/01/31 14:10:00,108.6, 6.3
2023/01/31 14:20:00,108.2, 5.8
2023/01/31 14:30:00,108.2, 5.6
2023/01/31 14:40:00,108.0, 5.1
2023/01/31 14:50:00,107.6, 5.2
2023/01/31 15:00:00,107.4, 4.6
2023/01/31 15:10:00,107.4, 4.0
2023/01/31 15:20:00,107.3, 3.0
2023/01/31 15:30:00,107.2, 2.2
2023/01/31 15:40:00,107.0, 2.3
2023/01/31 15:50:00,106.9, 1.7
2023/01/31 16:00:00,106.7, 1.8
2023/01/31 16:10:00,106.8, 1.8
2023/01/31 16:20:00,106.8, 0.9
2023/01/31 16:30:00,106.7, 0.4
2023/01/31 16:40:00,106.6, 0.1
2023/01/31 16:50:00,106.9,-0.4
2023/01/31 17:00:00,106.9,-0.5
2023/01/31 17:10:00,106.5,-0.7
2023/01/31 17:20:00,106.5,-1.4
2023/01/31 17:30:00,106.4,-1.5
2023/01/31 17:40:00,106.6,-1.7
2023/01/31 17:50:00,106.2,-1.5
2023/01/31 18:00:00,106.1,-2.1
2023/01/31 18:10:00,106.3,-1.9
2023/01/31 18:20:00,106.6,-1.5
2023/01/31 18:30:00,106.6,-1.6
2023/01/31 18:40:00,106.3,-1.5
2023/01/31 18:50:00,106.0,-1.5
2023/01/31 19:00:00,105.9,-1.2
2023/01/31 19:10:00,105.8,-1.2
2023/01/31 19:20:00,105.7,-1.4
2023/01/31 19:30:00,105.7,-2.3
2023/01/31 19:40:00,105.6,-2.1
2023/01/31 19:50:00,105.6,-2.5
2023/01/31 20:00:00,105.7,-2.4
2023/01/31 20:10:00,105.4,-2.7
2023/01/31 20:20:00,105.6,-2.9
2023/01/31 20:30:00,105.4,-3.1
2023/01/31 20:40:00,105.2,-3.4
2023/01/31 20:50:00,105.1,-3.1
2023/01/31 21:00:00,105.2,-2.9
2023/01/31 21:10:00,105.0,-3.3
2023/01/31 21:20:00,105.0,-3.1
2023/01/31 21:30:00,105.0,-3.5
2023/01/31 21:40:00,105.2,-3.6
2023/01/31 21:50:00,105.0,-3.9
2023/01/31 22:00:00,105.0,-3.8
2023/01/31 22:10:00,104.9,-3.8
2023/01/31 22:20:00,104.9,-3.8
2023/01/31 22:30:00,104.8,-4.1
2023/01/31 22:40:00,104.5,-4.3
2023/01/31 22:50:00,104.4,-4.3
2023/01/31 23:00:00,104.5,-4.0
2023/01/31 23:10:00,104.5,-3.9
2023/01/31 23:20:00,104.4,-4.1
2023/01/31 23:30:00,104.2,-3.9
2023/01/31 23:40:00,104.1,-4.2
2023/01/31 23:50:00,104.1,-4.4
